Showing default

QIANFAN-60, 62790

Orbit data source: Space-Track

QIANFAN-60, 62790 is a Chinese payload satellite in LEO that was launched on Thu, 23 Jan 2025 UTC via a CHANG ZHENG 6A launch vehicle from the Taiyaun Space Center, China (TSC). Payload-class satellites include a variety of spacecraft equipped with specific instruments for various scientific and technological missions. These include communications satellites like Starlink; space stations such as the ISS; scientific satellites like the Hubble; Earth observation satellites from companies like Planet Labs, Umbra, and HawkEye 360; GPS; miniature CubeSats for education and research; and military/defense satellites.

Loading next visibility...
Identifier
62790, 2025-016F
Orbit
LEO
Country
Flag of CNCN / PRC
Related business
Manufacturer
SECM
Mission
Operational Commercial Communications
Bus & Motor
QIANFAN, Unknown motor
Mass
267 kg wet, ~267 kg dry
Launch date (UTC)
2025-01-23 (11 months ago)
Launch vehicle
CHANG ZHENG 6A
Launch site
Taiyaun Space Center, China (TSC)
Object type
Payload
Rocket body
Debris
Shape & HBR
Box + 1 Pan, 1.2 m
Radar Cross Section
13.200 m², Large (>1 m²)

Expand to show TLE details & history
Last TLE update: 9 hours ago

TLE from 9 hours ago
0 QIANFAN-60
1 62790U 25016F   25352.55701895  .00000041  00000-0  44458-4 0  9999
2 62790  88.9762 102.4749 0014427 330.9639  29.0708 13.50985059 48018
Epoch: 2025-12-18T13:22Z
TLE epoch observation values (Epoch: 2025-12-18T13:22:06.437Z)
Latitude
-0.00004°
Longitude
174.53726°
Altitude
1,062.201 km
Speed
7.325 km/s
True Right ascension
06h 49m 53s
True Declination
0° 00' 00"
Sunlit
Object was in full shadow at epoch
Visualization orbit readout
Latitude
Unknown
Longitude
Unknown
Altitude
Unknown
Speed
Unknown
Apparent Right ascension
Unknown
Apparent Declination
Unknown
Sunlit
N/A
Visualization observer readout
Local Sidereal Time
20:57:02
Azimuth
Unknown
Elevation
Unknown
Doppler factor
Unknown
Orbital elements
Apogee altitude
1,076.427 km
Perigee altitude
1,054.948 km
Semi-major axis
7,443.825 km
Eccentricity
0.00144
Inclination
88.9762°
RAAN
102.4749°
Arg. of periapsis
330.9639°
True anomaly
29.15125°
Mean anomaly
29.0708°
Eccentric anomaly
29.11101°
Mean motion
3.37947 °/min
Orbital period
106.53 mins
BSTAR
0.000044458
Loading maneuver chart data...
Computing Atmospheric mass density...
Loading historical data...
Loading historical data...
Loading historical data...
Loading historical data...
Loading historical data...
Loading historical data...
Loading historical data...

Documentation

Showing up to 5 results
|